Weather History for Delaware, OH

Change the Weather History Date:

Tuesday, October 25, 2011

  Actual Average Record
Temperature  
Mean Temperature 49 °F -  
Max Temperature 66 °F 61 °F 80 °F (1963)
Min Temperature 32 °F 37 °F 19 °F (1964)
Degree Days  
Heating Degree Days 16    
Moisture  
Dew Point 35 °F    
Average Humidity 66    
Maximum Humidity 100    
Minimum Humidity 32    
Precipitation  
Precipitation 0.00 in - - ()
Sea Level Pressure  
Sea Level Pressure 30.14 in    
Wind  
Wind Speed 4 mph (South)    
Max Wind Speed 15 mph    
Max Gust Speed 21 mph    
Visibility 10 miles    
Events      
Averages and records for this station are not official NWS values.
T = Trace of Precipitation, MM = Missing Value Source: NWS Daily Summary

Daily Weather History Graph

Daily Weather History Graph

Search for Another Location

Airport:

Trip Planner

Search our weather history database for the weather conditions in past years. The results will help you decide how hot, cold, wet, or windy it might be!

Date:

Astronomy

Oct. 25, 2011 Rise Set
Actual Time 7:53 AM EDT 6:38 PM EDT
Civil Twilight 7:25 AM EDT 7:06 PM EDT
Nautical Twilight 6:54 AM EDT 7:38 PM EDT
Astronomical Twilight 6:22 AM EDT 8:09 PM EDT
Moon 6:24 AM EDT (10/25) 5:39 PM EDT (10/25)
Length of Visible Light 11h 40m
Length of Day
10h 44m
Waning Crescent, 2% of the Moon is Illuminated
Oct 25
Waning Crescent
Oct 26
New
Nov 2
First Quarter
Nov 10
Full
Nov 18
Last Quarter

Hourly Weather History & Observations

Time (EDT) Temp. Windchill Dew Point Humidity Pressure Visibility Wind Dir Wind Speed Gust Speed Precip Events Conditions
12:14 AM 41.0 °F - 33.8 °F 76% 30.17 in 10.0 mi Calm Calm - N/A   Clear
12:33 AM 41.0 °F 39.0 °F 33.8 °F 76% 30.17 in 10.0 mi WSW 3.5 mph - N/A   Clear
12:53 AM 39.2 °F - 33.8 °F 81% 30.17 in 10.0 mi Calm Calm - N/A   Clear
1:14 AM 37.4 °F - 33.8 °F 87% 30.18 in 10.0 mi Calm Calm - N/A   Clear
1:33 AM 37.4 °F - 33.8 °F 87% 30.18 in 10.0 mi Calm Calm - N/A   Clear
1:53 AM 35.6 °F 32.8 °F 33.8 °F 93% 30.18 in 10.0 mi SW 3.5 mph - N/A   Clear
2:13 AM 35.6 °F - 32.0 °F 87% 30.18 in 10.0 mi Calm Calm - N/A   Clear
2:33 AM 37.4 °F - 33.8 °F 87% 30.18 in 10.0 mi Calm Calm - N/A   Clear
3:13 AM 37.4 °F - 33.8 °F 87% 30.18 in 10.0 mi Calm Calm - N/A   Clear
3:33 AM 35.6 °F - 32.0 °F 87% 30.19 in 10.0 mi Calm Calm - N/A   Clear
3:53 AM 35.6 °F - 33.8 °F 93% 30.19 in 10.0 mi Calm Calm - N/A   Clear
4:14 AM 33.8 °F - 32.0 °F 93% 30.18 in 10.0 mi Calm Calm - N/A   Clear
4:33 AM 35.6 °F - 33.8 °F 93% 30.19 in 10.0 mi Calm Calm - N/A   Clear
4:54 AM 35.6 °F - 33.8 °F 93% 30.20 in 10.0 mi Calm Calm - N/A   Clear
5:13 AM 33.8 °F - 32.0 °F 93% 30.21 in 10.0 mi Calm Calm - N/A   Clear
5:33 AM 33.8 °F - 33.8 °F 100% 30.21 in 10.0 mi Calm Calm - N/A   Clear
5:53 AM 33.8 °F - 32.0 °F 93% 30.21 in 10.0 mi Calm Calm - N/A   Clear
6:13 AM 33.8 °F - 32.0 °F 93% 30.21 in 10.0 mi Calm Calm - N/A   Clear
6:33 AM 33.8 °F - 32.0 °F 93% 30.21 in 10.0 mi Calm Calm - N/A   Clear
6:54 AM 32.0 °F - 32.0 °F 100% 30.22 in 10.0 mi Calm Calm - N/A   Clear
7:13 AM 33.8 °F 30.8 °F 32.0 °F 93% 30.21 in 10.0 mi SSE 3.5 mph - N/A   Clear
7:33 AM 33.8 °F - 32.0 °F 93% 30.22 in 10.0 mi Calm Calm - N/A   Clear
8:13 AM 33.8 °F - 33.8 °F 100% 30.22 in 10.0 mi Calm Calm - N/A   Clear
8:33 AM 35.6 °F 32.8 °F 33.8 °F 93% 30.23 in 10.0 mi SSE 3.5 mph - N/A   Clear
8:53 AM 37.4 °F 33.8 °F 35.6 °F 93% 30.23 in 10.0 mi SSE 4.6 mph - N/A   Clear
9:13 AM 41.0 °F - 37.4 °F 87% 30.23 in 10.0 mi Calm Calm - N/A   Clear
9:33 AM 42.8 °F 40.1 °F 37.4 °F 81% 30.21 in 10.0 mi SSE 4.6 mph - N/A   Clear
9:53 AM 46.4 °F 44.3 °F 37.4 °F 71% 30.21 in 10.0 mi SSE 4.6 mph - N/A   Clear
10:13 AM 48.2 °F - 37.4 °F 66% 30.21 in 10.0 mi SSE 5.8 mph - N/A   Clear
10:34 AM 51.8 °F - 39.2 °F 62% 30.21 in 10.0 mi South 4.6 mph - N/A   Clear
10:53 AM 53.6 °F - 37.4 °F 54% 30.21 in 10.0 mi South 8.1 mph - N/A   Clear
11:14 AM 53.6 °F - 37.4 °F 54% 30.20 in 10.0 mi South 8.1 mph - N/A   Clear
11:33 AM 55.4 °F - 37.4 °F 51% 30.19 in 10.0 mi South 10.4 mph - N/A   Clear
11:54 AM 57.2 °F - 37.4 °F 48% 30.19 in 10.0 mi SSE 9.2 mph - N/A   Clear
12:13 PM 59.0 °F - 37.4 °F 45% 30.18 in 10.0 mi South 11.5 mph - N/A   Clear
12:33 PM 59.0 °F - 35.6 °F 42% 30.17 in 10.0 mi SSW 9.2 mph - N/A   Clear
12:54 PM 60.8 °F - 35.6 °F 39% 30.16 in 10.0 mi South 10.4 mph 17.3 mph N/A   Clear
1:13 PM 60.8 °F - 37.4 °F 42% 30.15 in 10.0 mi South 10.4 mph - N/A   Clear
1:34 PM 62.6 °F - 37.4 °F 39% 30.13 in 10.0 mi South 11.5 mph 16.1 mph N/A   Clear
1:53 PM 62.6 °F - 37.4 °F 39% 30.12 in 10.0 mi SSW 12.7 mph - N/A   Clear
2:13 PM 62.6 °F - 35.6 °F 37% 30.11 in 10.0 mi SSW 12.7 mph 18.4 mph N/A   Clear
2:34 PM 64.4 °F - 35.6 °F 34% 30.10 in 10.0 mi South 13.8 mph 17.3 mph N/A   Clear
3:13 PM 64.4 °F - 35.6 °F 34% 30.08 in 10.0 mi South 13.8 mph 18.4 mph N/A   Clear
3:33 PM 64.4 °F - 35.6 °F 34% 30.07 in 10.0 mi South 15.0 mph 19.6 mph N/A   Clear
3:53 PM 64.4 °F - 35.6 °F 34% 30.06 in 10.0 mi South 11.5 mph - N/A   Clear
4:13 PM 64.4 °F - 35.6 °F 34% 30.05 in 10.0 mi South 10.4 mph - N/A   Clear
4:33 PM 64.4 °F - 35.6 °F 34% 30.04 in 10.0 mi South 10.4 mph 18.4 mph N/A   Clear
4:53 PM 66.2 °F - 35.6 °F 32% 30.03 in 10.0 mi South 10.4 mph 20.7 mph N/A   Clear
5:13 PM 64.4 °F - 35.6 °F 34% 30.02 in 10.0 mi South 12.7 mph 17.3 mph N/A   Clear
5:33 PM 64.4 °F - 35.6 °F 34% 30.01 in 10.0 mi South 9.2 mph - N/A   Clear
5:53 PM 62.6 °F - 39.2 °F 42% 30.00 in 10.0 mi South 6.9 mph - N/A   Clear
6:13 PM 60.8 °F - 39.2 °F 45% 29.99 in 10.0 mi SSE 8.1 mph - N/A   Clear
6:33 PM 59.0 °F - 41.0 °F 51% 29.98 in 10.0 mi SSE 8.1 mph - N/A   Clear
6:53 PM 59.0 °F - 39.2 °F 48% 29.97 in 10.0 mi South 10.4 mph - N/A   Clear
7:14 PM 59.0 °F - 39.2 °F 48% 29.97 in 10.0 mi South 10.4 mph - N/A   Clear
7:33 PM 59.0 °F - 39.2 °F 48% 29.96 in 10.0 mi South 8.1 mph - N/A   Clear
7:54 PM 59.0 °F - 39.2 °F 48% 29.96 in 10.0 mi South 10.4 mph - N/A   Clear
8:13 PM 59.0 °F - 39.2 °F 48% 29.95 in 10.0 mi South 10.4 mph 17.3 mph N/A   Clear
8:34 PM 59.0 °F - 39.2 °F 48% 29.94 in 10.0 mi South 10.4 mph - N/A   Clear
9:13 PM 57.2 °F - 41.0 °F 55% 29.93 in 10.0 mi South 13.8 mph 18.4 mph N/A   Clear
9:33 PM 57.2 °F - 41.0 °F 55% 29.92 in 10.0 mi South 11.5 mph - N/A   Clear
9:53 PM 59.0 °F - 41.0 °F 51% 29.93 in 10.0 mi SSW 10.4 mph 16.1 mph N/A   Scattered Clouds
10:13 PM 59.0 °F - 39.2 °F 48% 29.93 in 10.0 mi South 11.5 mph 17.3 mph N/A   Scattered Clouds
10:33 PM 59.0 °F - 39.2 °F 48% 29.93 in 10.0 mi SSW 8.1 mph - N/A   Clear
10:53 PM 57.2 °F - 37.4 °F 48% 29.93 in 10.0 mi SSW 8.1 mph - N/A   Clear
11:13 PM 57.2 °F - 37.4 °F 48% 29.92 in 10.0 mi South 6.9 mph - N/A   Clear
11:33 PM 57.2 °F - 37.4 °F 48% 29.92 in 10.0 mi South 8.1 mph - N/A   Clear
11:54 PM 55.4 °F - 37.4 °F 51% 29.91 in 10.0 mi South 6.9 mph - N/A   Clear